Back to catalog

COSMOS 2216

AliveMilitaryPO
NORAD 22187·PAYLOAD·🇷🇺 Russia

Launched Oct 20, 1992 from Plesetsk Cosmodrome

Loading…

Next Passes (next 24 hours)

TLE

FreshSource: Space-Track

Epoch: Sep 14, 2026, 00:22 UTC

1 22187U 92068F   26257.01540425  .00000019  00000-0  47457-4 0  9999
2 22187  82.5924 287.2604 0004239 303.3101  56.7584 12.62587657562108

Track COSMOS 2216 in real time with AllMySat

Download on the App Store